Temperature
32 32 31 32 33 33 33 33 32 32 34 33 32 32 31 31 30 30 29 28 27 26 25 24 23 23 22 21 20 20 20 19 19 19 19 19 19 19 19 19 19 18 18 18
32 32 33 34 34 34 33 33 33 33 34 33 32 31 31 31 31 30 29 28 27 26 25 24 24 23 22 21 20 20 20 20 19 19 19 19 19 19 19 19 19 19 19 19
32 33 34 34 33 33 33 33 33 33 33 33 32 30 31 31 31 30 30 29 28 27 26 25 24 23 22 21 21 20 20 20 20 19 19 19 19 19 19 19 19 19 19 19
33 34 34 34 33 33 33 34 34 33 32 32 32 29 29 31 30 31 30 29 29 28 26 25 24 23 23 22 21 21 20 20 20 20 20 19 19 19 19 19 19 19 19 19
32 33 33 33 34 34 33 34 33 33 32 31 32 30 30 31 30 30 30 29 28 28 27 25 24 23 23 22 22 21 21 20 20 20 20 20 19 19 19 19 19 19 19 19
33 34 34 34 34 34 34 34 33 32 32 30 32 31 30 31 30 30 30 30 29 28 27 26 25 24 23 23 22 21 21 21 20 20 20 20 20 19 19 19 19 19 19 19
32 33 34 34 34 34 34 31 29 29 30 30 32 31 30 32 32 31 30 29 29 28 27 26 25 24 23 23 22 22 21 21 20 20 20 20 20 20 20 19 19 19 19 19
30 31 33 34 33 33 32 31 29 28 29 30 31 31 31 33 32 31 30 29 29 28 27 26 25 24 24 23 22 22 21 21 21 20 20 20 20 20 19 19 19 19 19 19
31 31 33 34 34 33 32 31 32 30 30 30 31 31 31 32 32 32 31 30 29 29 28 27 26 25 24 23 22 22 21 21 21 20 20 20 20 20 19 19 19 19 19 19
32 31 33 34 34 34 33 32 31 30 29 29 29 30 30 31 31 32 31 30 29 29 28 27 26 25 24 24 23 22 22 21 21 21 20 20 20 20 20 19 19 19 19 19
33 31 31 32 32 32 33 32 31 31 30 29 28 29 32 31 32 31 31 30 29 28 28 27 26 25 24 24 23 22 21 21 21 21 20 20 20 20 20 19 19 19 19 19
32 31 30 31 33 33 33 32 31 30 29 29 29 29 31 31 32 31 30 29 29 28 27 27 26 25 24 24 23 22 22 21 21 21 20 20 20 20 20 19 19 19 19 18
31 30 29 29 31 32 32 32 32 31 31 30 29 29 31 31 31 30 29 29 28 27 27 26 25 24 24 23 23 22 22 21 21 21 20 20 20 20 19 19 19 19 19 18
30 30 29 28 29 30 30 31 32 31 30 30 29 29 30 30 30 30 29 28 28 27 26 25 25 24 23 23 22 22 21 21 21 20 20 20 20 19 19 19 19 19 18 18
31 30 30 30 31 31 31 32 32 31 31 30 29 30 30 30 30 29 28 28 27 26 25 25 24 23 23 22 22 21 21 21 21 20 20 20 19 19 19 19 19 18 18 18
30 29 29 29 30 31 31 31 31 31 31 30 30 29 30 30 29 28 28 27 26 26 25 24 23 23 22 22 21 21 21 20 20 20 20 19 19 19 19 19 18 18 18 18
29 28 27 28 30 30 30 30 30 30 31 30 29 29 29 29 28 28 27 26 26 25 24 24 23 22 22 21 21 21 20 20 20 19 19 19 19 19 19 18 18 18 18 18
28 27 27 28 28 27 30 32 31 30 30 30 30 30 29 29 28 27 26 26 25 24 24 23 23 22 22 21 21 20 20 20 19 19 19 19 19 18 18 18 18 18 17 17
28 27 27 27 27 28 30 30 30 30 29 29 29 29 28 28 27 26 26 25 24 24 23 23 23 22 22 21 21 20 20 19 19 19 18 18 18 18 18 18 17 17 17 17
28 27 26 26 26 26 28 30 30 30 27 28 28 27 27 27 27 26 25 24 23 23 22 22 22 21 21 21 20 20 19 19 19 18 18 18 18 18 17 17 17 17 17 17
26 26 26 26 26 27 28 29 29 27 26 26 27 26 26 26 25 24 23 23 22 22 22 21 21 21 20 20 20 19 19 19 18 18 18 17 17 17 17 17 17 17 17 16
26 26 26 26 25 25 27 28 26 25 25 25 25 25 25 24 24 23 22 22 21 21 21 21 20 20 20 19 19 19 18 18 18 18 17 17 17 17 17 17 17 16 16 16
26 25 25 25 25 25 25 25 24 24 24 24 24 24 24 23 23 22 22 21 21 20 20 20 20 19 19 19 18 18 18 18 17 17 17 17 17 17 17 16 16 16 16 16
25 25 25 24 24 24 24 23 23 23 23 23 23 23 23 23 22 21 21 20 20 20 19 19 19 19 18 18 18 17 17 17 17 17 17 16 16 16 16 16 16 16 16 16
24 24 24 23 24 23 23 23 22 22 22 22 22 22 22 22 21 21 20 20 19 19 18 18 18 18 17 17 17 17 17 17 16 16 16 16 16 16 16 16 16 16 16 16
24 24 23 23 23 23 22 22 22 22 21 21 21 21 21 21 20 20 19 19 18 18 18 17 17 17 17 17 16 16 16 16 16 16 16 16 16 16 16 16 16 16 16 16
Wind_Speed
9 8 7 7 7 6 5 4 2 1 3 3 3 7 10 9 8 11 12 12 11 11 12 11 10 11 10 9 8 6 5 4 2 2 2 2 2 2 3 3 4 3 2 1
9 10 9 8 6 4 5 5 2 2 2 3 2 4 7 11 10 9 12 13 12 12 12 11 10 10 10 9 8 6 6 5 3 2 1 1 2 2 3 2 4 3 2 2
11 8 6 6 6 6 7 5 4 3 3 4 3 2 5 9 8 8 10 12 13 14 14 13 11 10 10 10 9 7 6 5 4 3 2 2 1 1 2 2 3 2 2 2
11 10 8 8 7 8 7 5 6 5 5 4 5 3 6 9 8 7 8 10 10 13 14 13 12 11 10 10 10 8 7 6 5 4 3 3 3 2 2 2 3 2 2 2
10 10 10 9 8 7 7 7 7 8 7 6 6 3 5 8 7 8 8 9 9 11 13 13 13 12 10 10 10 9 7 6 5 4 3 2 2 2 2 2 3 2 2 2
13 10 10 9 8 8 7 8 8 9 8 8 6 4 3 5 8 8 8 9 10 10 11 13 13 11 10 10 10 10 8 6 6 5 4 3 2 1 0 0 1 2 2 2
12 11 10 9 8 8 7 5 5 7 6 6 5 3 1 5 8 8 9 9 10 10 10 11 12 12 10 10 9 9 9 7 6 6 4 3 2 1 1 2 2 1 1 2
10 10 11 9 8 8 8 7 6 7 6 5 5 2 3 4 8 10 11 10 10 10 10 11 13 12 11 10 9 10 9 8 7 6 4 3 3 2 2 2 1 1 0 1
8 8 8 7 7 8 8 8 8 9 10 7 3 3 5 6 7 8 9 10 9 9 10 10 12 12 11 10 9 10 10 8 7 6 5 4 3 2 1 1 1 1 1 1
10 8 7 7 7 9 9 7 6 7 6 7 5 4 3 7 7 7 7 7 8 7 8 9 8 9 10 10 9 9 9 8 6 5 4 5 4 3 2 1 1 1 0 1
11 9 8 7 8 8 8 8 6 6 5 6 6 2 2 5 7 7 7 7 7 6 6 8 9 8 8 9 9 9 8 8 7 6 5 4 4 4 3 3 2 1 1 1
8 7 9 10 8 8 9 8 7 7 5 5 6 3 2 2 5 7 8 7 6 5 5 6 8 8 7 8 8 8 7 7 7 6 5 4 4 4 4 3 3 2 2 2
4 5 8 8 8 8 8 8 9 9 8 5 5 2 4 4 5 7 7 7 6 6 6 6 6 6 6 6 6 6 6 7 6 6 7 5 5 4 4 3 2 2 2 2
5 8 9 10 8 6 8 10 9 9 7 6 4 3 2 3 4 5 6 6 6 6 6 5 6 5 5 4 5 5 4 4 5 4 5 5 5 5 4 3 3 3 3 3
7 10 10 12 11 9 10 10 9 9 8 7 5 3 2 2 3 4 4 4 6 6 6 6 6 5 4 4 4 4 4 3 3 4 3 3 4 3 3 3 3 2 3 3
7 8 10 13 12 11 11 10 9 8 7 6 5 3 0 3 3 4 4 3 3 5 5 5 6 5 4 4 4 4 4 3 3 4 3 3 3 3 2 2 2 2 2 2
7 7 9 12 12 13 12 9 8 7 6 4 3 2 2 1 2 3 4 2 2 3 4 4 4 4 4 4 4 4 4 4 4 3 2 2 2 2 2 2 2 2 2 2
7 6 7 11 11 13 7 4 4 5 4 3 2 2 1 2 2 3 3 3 2 2 2 2 3 3 4 4 4 4 4 4 3 3 3 2 2 2 2 2 2 2 2 3
6 6 8 9 11 10 7 4 4 4 2 2 1 1 1 1 1 2 3 3 2 1 1 0 1 2 2 2 3 3 3 4 3 3 2 2 2 2 2 3 3 3 3 3
8 6 8 9 10 9 3 1 2 3 3 2 2 3 3 2 1 2 4 3 2 2 1 1 0 1 1 1 2 3 3 3 3 3 2 2 2 2 2 3 3 3 3 3
9 10 12 12 11 7 3 3 4 4 1 5 4 3 3 2 3 3 4 4 3 2 1 1 2 2 2 2 2 3 3 3 3 2 2 2 2 3 2 3 3 3 3 3
9 9 9 9 10 5 6 4 3 4 5 5 4 4 4 4 3 3 3 3 3 2 1 1 2 2 2 2 2 2 2 1 2 2 2 2 2 3 3 2 3 3 3 3
5 3 2 2 2 4 7 7 5 4 4 4 4 3 4 3 2 3 3 2 2 2 1 1 1 2 1 1 1 1 1 1 1 2 2 3 3 2 2 3 3 4 4 4
3 1 2 1 0 3 6 6 6 6 5 5 4 4 3 2 2 3 2 2 2 2 1 1 0 0 0 0 0 1 1 2 2 2 2 2 2 3 3 3 3 3 3 3
4 4 3 3 1 2 3 4 5 6 5 5 5 5 4 3 1 1 1 1 1 1 1 1 1 0 0 0 1 1 1 1 1 2 2 3 4 4 3 2 3 3 2 2
4 3 4 3 2 3 3 4 4 4 5 5 5 4 5 4 2 1 1 1 1 1 1 1 0 0 0 1 0 1 1 1 2 2 3 4 4 3 3 3 3 2 4 4
Wind_Direction
233 235 239 243 231 245 281 312 342 230 171 152 149 152 157 160 176 169 165 165 169 164 159 157 154 148 145 140 139 144 137 137 162 147 149 142 139 153 135 135 125 124 118 92
237 236 243 247 263 273 277 290 280 225 166 164 149 135 157 163 179 186 172 168 168 163 157 157 158 157 152 147 147 149 150 158 172 135 134 162 157 157 135 117 128 144 153 166
246 249 247 250 253 262 266 268 275 264 228 190 172 191 185 176 175 181 178 171 169 169 165 163 165 165 159 157 160 167 163 160 168 158 171 157 154 135 122 143 146 153 163 133
250 257 261 255 252 257 270 285 278 269 258 235 218 206 192 176 170 182 178 169 169 168 166 168 170 170 169 166 164 155 158 160 162 174 192 187 175 165 169 163 136 163 166 153
244 246 254 257 260 268 277 283 286 283 275 265 233 212 184 162 162 179 187 169 163 167 168 169 172 171 174 169 163 157 155 157 163 184 193 204 209 182 167 149 142 173 166 162
252 246 252 257 259 259 264 281 285 266 258 255 249 236 193 162 167 173 169 163 167 168 166 167 167 166 172 169 164 159 155 159 165 184 191 200 226 228 130 188 161 201 175 160
249 249 242 244 251 250 259 272 276 265 251 255 252 237 169 150 148 150 151 158 164 163 160 165 165 164 169 170 165 155 153 162 171 182 188 183 213 211 227 250 237 241 190 141
245 248 235 227 236 252 251 251 252 270 265 253 251 205 133 113 128 137 146 154 158 160 157 164 165 164 168 168 162 157 155 162 172 178 177 179 185 199 220 223 269 267 324 99
248 240 232 232 235 243 254 257 262 269 282 280 259 176 150 131 137 140 145 148 153 155 153 165 163 164 168 167 166 164 158 163 171 171 160 160 173 197 235 196 214 280 350 128
258 270 253 233 233 233 245 267 267 261 275 277 271 251 176 153 150 141 134 133 138 149 153 154 159 165 165 166 164 162 159 161 163 162 173 173 178 191 199 207 245 256 22 16
251 262 268 253 233 244 239 243 260 280 284 278 279 282 114 127 130 131 127 129 131 139 144 149 154 152 157 157 158 158 157 160 167 173 177 176 178 183 186 198 219 226 255 275
242 251 262 258 258 254 254 253 255 260 258 264 273 274 106 107 128 125 119 116 121 128 134 140 145 152 162 158 159 158 161 163 170 171 174 184 182 182 192 202 206 213 225 237
273 257 255 255 256 243 248 252 257 263 269 260 257 237 142 116 106 111 118 117 118 120 121 123 127 141 150 151 150 154 157 163 169 173 181 184 186 186 195 208 204 210 225 237
263 254 257 259 261 248 250 252 252 256 269 266 247 225 129 114 115 109 114 128 131 124 118 119 112 117 123 129 134 140 150 160 162 168 184 182 186 182 192 206 204 202 214 228
252 256 262 270 273 266 263 265 258 258 261 264 258 238 215 127 122 115 116 130 126 122 114 108 110 116 133 141 140 142 154 159 162 167 186 175 171 165 180 195 203 205 218 233
246 266 269 268 269 269 267 269 268 266 262 248 254 254 90 107 103 101 103 105 104 116 122 124 125 128 143 152 148 149 157 161 168 180 186 169 169 165 181 197 205 216 230 243
247 247 260 264 260 262 255 251 257 266 273 262 261 255 159 150 90 101 108 110 111 117 120 120 132 140 149 155 158 167 166 167 176 183 174 161 172 183 195 224 218 227 243 253
252 261 257 262 259 253 259 252 225 242 264 281 247 215 184 110 95 87 114 127 122 108 118 139 157 153 161 157 163 181 169 171 176 183 176 169 178 206 212 224 236 240 246 248
243 244 255 259 259 254 251 246 252 255 278 351 357 359 35 69 114 87 71 91 88 83 79 129 173 164 155 174 169 165 180 181 183 191 190 192 199 215 218 226 235 238 247 253
220 223 243 252 259 263 282 345 303 244 226 36 26 16 358 332 238 56 44 51 71 56 51 36 74 138 141 145 151 168 195 192 194 197 199 212 220 236 233 240 244 249 249 247
216 221 233 248 254 256 324 329 296 265 38 34 36 23 348 358 8 46 29 39 60 66 75 63 73 90 120 135 152 183 203 210 199 184 191 211 228 247 234 243 246 251 257 255
226 232 232 246 252 255 2 353 25 43 33 25 25 13 16 36 53 60 47 44 37 19 25 98 93 105 115 135 157 186 203 207 178 178 202 210 225 254 254 254 259 252 248 248
240 269 272 276 282 49 38 40 46 40 16 4 2 2 8 16 28 53 50 32 16 19 30 52 95 105 105 117 137 210 211 193 188 192 215 231 234 250 274 255 256 255 245 246
238 317 275 281 17 32 34 26 9 6 2 353 349 347 354 350 15 38 47 30 22 25 24 21 63 120 56 34 204 248 238 201 217 223 229 237 239 248 257 253 255 257 268 274
301 282 261 242 234 312 347 2 352 356 357 351 344 344 346 350 3 17 61 52 9 4 12 5 19 55 42 10 234 238 255 213 217 240 247 252 252 246 250 247 265 262 271 265
297 299 277 271 318 311 327 346 345 348 346 335 327 330 335 342 340 341 29 66 51 341 13 17 18 43 48 43 283 252 257 228 219 247 260 267 270 262 248 243 253 259 239 226
Height
1485 1487 1487 1483 1478 1477 1477 1479 1483 1480 1473 1476 1481 1485 1488 1491 1494 1497 1501 1506 1510 1513 1517 1519 1522 1523 1525 1526 1527 1528 1529 1530 1531 1531 1532 1533 1534 1535 1535 1535 1535 1536 1536 1536
1484 1485 1478 1474 1472 1474 1476 1482 1482 1476 1471 1476 1482 1485 1484 1487 1491 1494 1497 1502 1507 1511 1515 1518 1521 1523 1524 1525 1527 1528 1528 1529 1530 1531 1532 1534 1534 1535 1536 1536 1536 1536 1536 1536
1484 1477 1471 1473 1474 1478 1477 1480 1480 1480 1474 1474 1482 1491 1488 1486 1488 1492 1495 1499 1503 1508 1513 1516 1519 1521 1523 1524 1526 1527 1528 1529 1530 1531 1532 1534 1535 1535 1536 1536 1536 1536 1537 1537
1478 1473 1472 1473 1475 1476 1481 1472 1472 1474 1481 1486 1483 1505 1493 1485 1487 1490 1493 1497 1501 1505 1510 1514 1517 1520 1522 1523 1525 1526 1527 1528 1529 1531 1532 1533 1534 1535 1536 1536 1536 1536 1537 1536
1477 1473 1473 1475 1473 1472 1475 1469 1471 1474 1480 1486 1482 1495 1494 1483 1490 1490 1491 1494 1499 1504 1507 1511 1515 1517 1520 1522 1524 1525 1526 1527 1529 1530 1531 1532 1534 1535 1535 1536 1536 1536 1536 1536
1471 1469 1468 1469 1468 1468 1469 1471 1475 1476 1481 1499 1485 1491 1496 1483 1485 1486 1488 1493 1497 1501 1505 1509 1513 1516 1519 1521 1523 1524 1525 1526 1528 1529 1530 1532 1533 1534 1534 1535 1536 1536 1536 1536
1477 1470 1466 1467 1471 1470 1472 1486 1504 1506 1504 1500 1477 1486 1490 1475 1476 1480 1486 1491 1495 1499 1503 1507 1510 1514 1517 1519 1521 1522 1523 1525 1526 1528 1529 1531 1532 1533 1533 1534 1535 1535 1535 1535
1488 1485 1467 1465 1470 1475 1475 1483 1507 1518 1511 1498 1482 1489 1482 1471 1474 1479 1484 1489 1494 1497 1501 1505 1508 1512 1515 1517 1520 1521 1522 1524 1525 1527 1528 1530 1531 1532 1532 1533 1534 1534 1535 1534
1481 1481 1464 1463 1464 1469 1478 1481 1477 1491 1493 1498 1491 1485 1477 1472 1475 1478 1482 1487 1491 1496 1500 1504 1507 1510 1513 1516 1518 1520 1521 1522 1524 1526 1527 1528 1529 1530 1531 1532 1533 1533 1533 1533
1470 1479 1467 1463 1464 1465 1469 1472 1480 1493 1508 1513 1501 1493 1486 1478 1476 1478 1481 1486 1490 1495 1498 1501 1505 1509 1511 1514 1517 1519 1519 1521 1522 1524 1525 1527 1528 1529 1530 1531 1531 1532 1532 1532
1467 1478 1475 1469 1471 1472 1471 1473 1479 1484 1490 1508 1514 1501 1473 1474 1474 1478 1482 1486 1490 1493 1497 1500 1505 1507 1510 1513 1515 1517 1518 1520 1521 1523 1524 1525 1526 1527 1528 1529 1530 1530 1530 1531
1466 1474 1483 1475 1464 1463 1465 1471 1476 1492 1496 1495 1503 1501 1473 1474 1475 1478 1483 1487 1490 1494 1497 1500 1504 1507 1509 1512 1514 1516 1517 1519 1520 1521 1523 1524 1525 1526 1526 1527 1528 1528 1528 1529
1470 1478 1492 1490 1480 1471 1469 1468 1470 1473 1479 1489 1500 1499 1474 1476 1477 1480 1484 1488 1491 1494 1497 1500 1503 1506 1508 1511 1512 1514 1516 1518 1519 1520 1521 1522 1523 1524 1525 1525 1526 1526 1526 1526
1473 1477 1487 1496 1487 1476 1476 1471 1468 1473 1485 1489 1490 1490 1480 1479 1480 1483 1486 1490 1492 1495 1498 1500 1503 1506 1508 1509 1511 1513 1515 1517 1518 1519 1520 1521 1521 1522 1522 1523 1524 1524 1524 1524
1472 1478 1477 1474 1469 1467 1469 1468 1468 1472 1474 1483 1484 1482 1480 1481 1481 1484 1487 1490 1492 1495 1498 1501 1503 1505 1507 1509 1511 1512 1514 1515 1516 1517 1518 1519 1520 1520 1521 1522 1522 1522 1522 1522
1473 1479 1479 1478 1470 1468 1469 1467 1467 1469 1471 1475 1478 1482 1477 1480 1483 1486 1489 1491 1493 1496 1498 1501 1503 1505 1507 1508 1510 1511 1513 1514 1515 1516 1517 1517 1518 1518 1519 1519 1519 1519 1519 1519
1473 1480 1486 1485 1473 1472 1478 1469 1469 1471 1470 1473 1481 1481 1479 1481 1484 1487 1489 1492 1494 1497 1499 1501 1503 1504 1506 1508 1509 1510 1511 1513 1514 1514 1515 1516 1516 1517 1517 1517 1517 1517 1517 1517
1477 1481 1483 1482 1482 1495 1474 1460 1463 1469 1470 1470 1473 1476 1478 1482 1485 1488 1490 1493 1495 1497 1499 1500 1502 1503 1505 1506 1508 1509 1510 1511 1512 1513 1513 1514 1514 1515 1515 1515 1515 1515 1514 1514
1474 1480 1484 1485 1488 1482 1469 1463 1464 1470 1474 1473 1475 1478 1480 1482 1485 1488 1491 1493 1495 1497 1498 1500 1501 1502 1503 1505 1506 1507 1509 1510 1510 1511 1511 1512 1512 1512 1512 1512 1512 1512 1511 1511
1473 1478 1485 1486 1493 1493 1477 1465 1464 1469 1479 1477 1478 1480 1482 1483 1486 1490 1492 1493 1494 1496 1497 1499 1500 1501 1502 1503 1504 1505 1506 1507 1508 1508 1509 1509 1510 1510 1510 1510 1509 1509 1509 1508
1478 1481 1484 1486 1489 1483 1471 1468 1468 1482 1488 1481 1481 1483 1485 1486 1489 1491 1492 1493 1494 1495 1496 1497 1498 1499 1500 1501 1502 1503 1504 1505 1505 1506 1507 1507 1508 1508 1508 1508 1507 1507 1506 1505
1478 1480 1482 1483 1489 1490 1475 1472 1479 1485 1484 1484 1485 1486 1487 1488 1489 1490 1492 1493 1494 1494 1495 1496 1497 1497 1498 1499 1500 1501 1501 1502 1503 1504 1504 1505 1505 1506 1506 1505 1505 1504 1503 1502
1473 1476 1477 1483 1486 1483 1481 1482 1484 1485 1486 1486 1487 1487 1488 1489 1490 1490 1492 1493 1494 1494 1495 1495 1496 1496 1497 1497 1498 1499 1499 1500 1500 1501 1502 1502 1502 1502 1502 1502 1502 1501 1500 1500
1474 1475 1478 1482 1482 1483 1484 1486 1487 1487 1487 1488 1488 1488 1488 1489 1490 1491 1492 1492 1493 1494 1494 1494 1495 1495 1495 1496 1496 1497 1497 1498 1498 1499 1499 1499 1499 1499 1499 1499 1498 1498 1498 1497
1478 1478 1479 1482 1483 1485 1486 1487 1488 1488 1488 1488 1489 1489 1489 1489 1490 1491 1492 1492 1493 1493 1494 1494 1494 1494 1494 1494 1494 1494 1495 1495 1495 1495 1496 1496 1496 1496 1496 1495 1495 1494 1494 1494
1479 1480 1482 1484 1485 1486 1488 1488 1489 1489 1489 1490 1490 1490 1489 1489 1489 1490 1491 1492 1492 1493 1493 1493 1492 1492 1492 1492 1492 1492 1492 1492 1492 1492 1493 1493 1493 1493 1492 1492 1491 1490 1491 1491